Meteorological data from the Remote Area Weather Station in the Loch Vale Watershed,,,,,,,,,,,,,,,,,,,,,
,,,,,,,,,,,,,,,,,,,,,
Date,Tmin2M (�C),Tmax2M (�C),Tave2M (�C),RHmin2M (%),RHmax2M (%),RHave2M (%),WSave6M (m/s),WSmax6M (m/s),SWin6M (W/m^2),SWinave6M (W/m^2),VoltAvg,BPmin2M (mb),BPmax2M (mb),BPave2M (mb),WDmin6M (�),WDmax6M (�),WDave6M (�),,,,
09/09/82,,,,,,,3.1,4.5,,,13.6,694.7,696.6,696.1,184.1,198.4,190.8,,,,
09/10/82,,,,,,,3.2,5.5,,,13.0,688.3,693.7,690.2,161.9,239.0,195.3,,,,
09/11/82,,,,,,,2.7,6.2,,,12.6,681.7,687.8,684.9,184.4,232.4,208.3,,,,
09/12/82,,,,,,,3.0,7.2,,,12.7,679.1,682.9,680.4,103.1,268.5,189.4,,,,
09/13/82,,,,,,,1.3,4.1,,,12.5,680.4,682.3,681.2,98.1,270.0,201.1,,,,
09/14/82,,,,,,,4.4,8.2,,,12.6,680.4,687.6,683.5,135.0,254.1,177.1,,,,
09/15/82,,,,,,,1.0,2.8,,,12.8,687.8,690.7,688.6,108.4,243.4,198.4,,,,
09/16/82,,,,,,,4.8,9.6,,,13.0,687.8,693.6,689.8,123.7,225.0,174.3,,,,
09/17/82,,,,,,,2.4,8.8,,,12.7,688.6,692.7,690.4,116.6,260.5,190.5,,,,
09/18/82,,,,,,,2.1,5.0,,,12.8,690.8,695.5,692.5,108.4,258.7,188.8,,,,
09/19/82,,,,,,,0.8,1.7,,,12.6,688.9,692.2,690.5,90.0,254.1,210.9,,,,
09/20/82,,,,,,,1.2,2.6,,,12.7,689.4,694.8,691.5,90.0,270.0,203.9,,,,
09/21/82,8.7,21.1,13.2,41.0,100.0,59.9,2.7,7.4,,,12.9,691.4,716.2,695.9,164.1,259.7,207.5,,,,
09/22/82,3.5,12.4,8.4,43.0,100.0,62.1,5.0,10.4,,,12.9,692.4,695.2,693.8,113.2,258.7,195.4,,,,
09/23/82,4.0,13.6,8.5,32.0,100.0,65.3,3.3,6.0,,,12.9,690.8,697.2,693.6,103.5,253.3,198.4,,,,
09/24/82,2.2,13.1,7.2,28.0,100.0,61.9,1.5,3.1,,,13.0,691.1,698.3,694.2,90.0,270.0,195.9,,,,
09/25/82,4.6,10.4,8.0,17.0,100.0,52.1,4.6,8.7,,,12.6,688.6,695.1,692.5,92.7,235.9,189.7,,,,
09/26/82,5.2,8.9,6.7,70.0,100.0,86.5,8.1,11.0,,,12.4,683.4,689.4,686.0,174.0,243.4,195.5,,,,
09/27/82,3.5,13.4,7.8,40.0,86.0,65.2,2.6,7.4,,,12.6,675.4,683.1,678.6,4.4,242.4,184.8,,,,
09/28/82,-3.1,3.3,-0.6,,,,7.2,12.4,,,12.7,669.5,675.0,672.2,122.6,242.2,189.9,,,,
09/29/82,-3.3,6.1,0.1,,,,3.6,8.0,,,12.8,673.5,681.6,676.8,102.1,248.7,193.3,,,,
09/30/82,-2.6,1.3,-1.3,,,,1.0,2.3,,,12.5,680.3,682.1,681.5,135.0,270.0,226.2,,,,
10/01/82,-2.9,4.7,0.3,,,,2.8,7.4,,,12.7,679.8,682.9,681.0,90.0,264.6,183.3,,,,
10/02/82,-4.1,6.1,-0.4,,,,7.0,14.4,,,12.9,679.3,688.8,682.9,92.3,270.0,193.9,,,,
10/03/82,2.5,10.1,5.3,,,,6.8,10.0,,,13.0,685.3,687.7,686.4,171.8,225.0,198.3,,,,
10/04/82,2.7,11.8,5.8,,,,6.1,10.0,,,13.0,683.2,687.2,684.9,135.0,257.8,190.5,,,,
10/05/82,-1.4,7.1,4.0,,,,4.0,8.7,,,12.8,678.8,683.3,680.4,158.2,243.4,194.9,,,,
10/06/82,-5.8,4.0,-1.8,,,,6.7,11.5,,,12.9,677.6,685.5,681.1,153.4,263.3,211.2,,,,
10/07/82,3.1,13.1,5.9,,,,7.4,11.7,,,12.9,681.0,684.7,683.2,135.0,225.0,186.6,,,,
10/08/82,-6.9,6.5,-1.6,,,,2.7,5.2,,,12.6,673.1,679.6,675.3,100.4,270.0,200.1,,,,
10/09/82,-9.8,-7.2,-8.5,,,,4.3,8.1,,,12.4,673.2,679.3,675.4,102.1,253.5,213.9,,,,
10/10/82,-9.8,-3.6,-6.9,,,,2.4,10.7,,,12.7,679.9,683.9,681.4,99.5,262.4,169.3,,,,
10/11/82,-11.1,-1.4,-7.3,,,,1.3,4.5,,,12.9,676.7,683.5,679.3,129.8,267.9,209.8,,,,
10/12/82,-8.7,1.8,-4.6,,,,0.4,3.7,,,12.6,679.4,688.2,682.6,104.0,243.4,183.8,,,,
10/13/82,-9.7,1.7,-3.5,,,,1.0,3.7,,,12.8,682.5,689.0,685.3,116.6,259.0,197.1,,,,
10/14/82,-7.2,8.0,-1.5,,,,0.5,3.0,,,12.7,683.6,693.3,687.0,96.3,270.0,171.2,,,,
10/15/82,-3.3,11.8,1.2,,,,0.5,1.9,,,12.8,689.2,697.9,692.0,108.4,260.0,197.2,,,,
10/16/82,-1.9,5.3,2.6,,,,5.9,9.7,,,12.8,688.1,693.2,689.9,116.6,270.0,201.4,,,,
10/17/82,0.5,6.6,2.5,,,,6.4,8.2,,,12.8,684.7,687.9,686.1,175.5,221.2,201.1,,,,
10/18/82,-0.6,6.1,2.8,,,,6.0,9.3,,,12.8,682.0,684.3,683.0,170.7,225.0,192.0,,,,
10/19/82,-11.0,3.0,-4.6,,,,3.8,8.2,,,12.9,678.6,686.1,681.3,96.2,266.6,215.7,,,,
10/20/82,-5.2,3.6,-1.5,,,,4.7,7.5,,,12.8,683.4,687.7,684.7,98.1,257.2,207.9,,,,
10/21/82,-2.9,4.9,-0.4,,,,3.6,7.3,,,12.8,684.5,691.1,686.5,157.6,248.7,209.6,,,,
10/22/82,-3.3,5.7,0.9,,,,4.5,8.3,,,12.8,687.7,692.2,689.2,187.6,256.3,222.4,,,,
10/23/82,1.0,7.6,3.0,,,,5.3,8.3,,,12.8,688.6,693.5,690.2,176.2,264.8,211.0,,,,
10/24/82,2.2,9.2,4.5,,,,2.6,5.1,,,12.8,689.4,693.6,690.8,163.6,268.8,208.2,,,,
10/25/82,0.8,3.2,1.7,,,,3.1,9.0,,,12.5,685.3,689.6,686.8,104.0,263.4,178.0,,,,
10/26/82,1.6,16.0,3.1,,,,7.3,10.0,,,12.4,681.1,685.4,683.7,164.2,210.1,195.1,,,,
10/27/82,0.4,20.4,9.8,,,,4.8,8.9,,,12.4,673.2,680.1,675.3,100.8,270.0,200.0,,,,
10/28/82,10.7,21.2,13.6,,,,6.9,9.4,,,12.5,673.8,676.4,675.1,111.2,246.8,207.7,,,,
10/29/82,-3.5,20.8,11.5,26.0,47.0,33.9,9.8,14.3,,,12.6,673.6,676.7,675.5,193.0,255.1,210.6,,,,
10/30/82,-4.4,2.6,-1.0,45.0,78.0,62.4,9.5,13.4,,,12.5,675.8,678.9,677.2,176.3,215.5,198.7,,,,
10/31/82,-1.9,1.7,-0.2,55.0,74.0,64.5,8.1,12.0,,,12.3,677.6,679.3,678.4,174.6,202.1,190.5,,,,
11/01/82,-7.6,-2.3,-4.6,51.0,77.0,63.7,5.6,9.8,,,12.4,675.3,678.9,676.9,90.0,214.2,188.0,,,,
11/02/82,-11.5,-5.1,-8.9,45.0,72.0,57.9,2.2,5.9,,,12.4,675.9,681.4,677.7,0.0,250.0,186.1,,,,
11/03/82,-12.6,-6.5,-10.8,36.0,58.0,48.8,5.0,9.8,,,12.6,677.5,681.7,679.2,209.2,270.0,226.6,,,,
11/04/82,-9.4,-0.8,-6.1,22.0,44.0,35.1,5.5,9.9,,,12.6,677.9,683.1,680.0,166.6,256.7,214.8,,,,
11/05/82,-2.7,2.1,-1.4,15.0,23.0,18.6,7.2,10.2,,,12.7,680.7,683.6,681.7,196.5,234.1,208.1,,,,
11/06/82,-2.7,3.8,-0.3,17.0,27.0,22.4,9.3,11.1,,,12.8,679.3,682.1,680.7,166.1,213.3,197.1,,,,
11/07/82,-2.0,4.6,0.5,15.0,24.0,19.7,6.5,12.9,,,12.8,677.2,681.8,679.1,156.3,242.5,194.4,,,,
11/08/82,-4.0,4.3,0.1,17.0,42.0,29.5,3.0,6.1,,,12.7,676.8,680.4,678.5,113.2,263.7,211.9,,,,
11/09/82,-3.8,0.0,-1.6,45.0,67.0,55.5,3.2,9.5,,,12.5,674.8,678.6,676.7,101.3,244.7,172.7,,,,
11/10/82,-4.7,3.8,-2.5,26.0,57.0,45.7,3.4,6.6,,,12.6,676.9,681.7,679.2,108.4,265.4,186.5,,,,
11/11/82,-8.7,-4.3,-5.9,57.0,88.0,67.2,2.3,5.5,,,12.5,664.4,675.3,668.2,98.7,258.7,211.9,,,,
11/12/82,-13.5,-4.6,-10.1,15.0,69.0,52.0,5.4,10.5,,,12.6,671.0,681.8,676.2,95.6,261.3,201.3,,,,
11/13/82,-9.3,-5.3,-6.2,15.0,70.0,31.4,6.8,10.1,,,12.5,670.6,680.0,675.1,151.6,203.2,186.9,,,,
11/14/82,-14.8,-2.4,-10.0,15.0,64.0,39.8,3.8,7.6,,,12.5,673.2,685.0,678.2,95.2,251.6,185.9,,,,
11/15/82,-6.5,-2.1,-4.0,12.0,30.0,19.5,8.1,12.9,,,12.7,676.8,681.9,679.3,189.8,268.0,207.2,,,,
11/16/82,-7.3,-1.5,-5.2,15.0,34.0,22.3,7.1,10.4,,,12.7,674.1,678.8,676.0,191.0,245.2,208.5,,,,
11/17/82,-4.1,1.1,-2.5,18.0,100.0,26.1,8.4,11.2,,,12.6,673.9,677.3,675.3,192.6,230.4,205.9,,,,
11/18/82,-2.4,-0.6,-1.8,32.0,66.0,47.0,7.0,13.3,,,12.4,672.3,675.7,674.3,178.3,219.4,203.4,,,,
11/19/82,-6.9,-1.3,-2.7,52.0,75.0,61.6,8.2,13.0,,,12.2,667.0,672.2,670.4,123.1,213.1,186.5,,,,
11/20/82,-11.5,-7.9,-10.0,44.0,72.0,61.3,3.9,8.4,,,12.4,668.9,672.9,670.6,120.5,265.2,183.1,,,,
11/21/82,-11.2,-6.9,-9.5,42.0,66.0,55.9,4.6,8.3,,,12.6,672.2,674.6,673.3,145.8,215.2,187.4,,,,
11/22/82,-12.5,-7.4,-8.5,47.0,74.0,59.4,5.3,8.5,,,12.3,670.7,673.9,672.5,102.1,228.8,178.1,,,,
11/23/82,-15.8,-7.2,-12.9,17.0,77.0,46.6,3.7,9.0,,,12.4,670.8,679.2,673.4,108.4,254.1,200.6,,,,
11/24/82,-15.2,-0.9,-7.9,13.0,50.0,28.0,2.4,5.3,,,12.6,675.9,683.6,678.8,106.7,270.0,206.9,,,,
11/25/82,-7.6,-4.4,-6.3,39.0,63.0,54.9,7.1,10.4,,,12.5,676.6,679.9,677.9,194.6,236.8,209.9,,,,
11/26/82,-13.0,2.1,-7.7,15.0,75.0,41.1,1.9,5.9,,,12.5,679.0,687.2,681.1,102.5,270.0,197.2,,,,
11/27/82,-11.3,1.7,-7.1,12.0,40.0,26.3,2.2,7.2,,,12.6,676.4,681.9,678.4,106.4,270.0,230.1,,,,
11/28/82,-8.3,-3.0,-5.9,27.0,59.0,40.7,6.3,9.4,,,12.5,670.6,675.8,672.2,108.8,267.7,211.5,,,,
11/29/82,-6.9,-5.1,-6.1,54.0,68.0,60.0,7.7,10.2,,,12.4,667.2,671.4,669.3,186.1,215.7,203.5,,,,
11/30/82,-8.5,-0.6,-5.5,35.0,73.0,54.8,6.2,11.9,,,12.4,663.9,667.0,665.4,123.7,238.0,195.8,,,,
12/01/82,-10.7,-2.1,-6.5,37.0,68.0,52.8,4.0,9.5,,,12.3,651.8,662.8,656.5,102.3,270.0,203.1,,,,
12/02/82,-11.3,-10.2,-10.7,55.0,68.0,60.0,9.2,10.8,,,12.0,653.6,667.8,659.1,188.0,210.8,201.8,,,,
12/03/82,-11.5,2.7,-7.5,30.0,62.0,50.9,5.6,10.4,,,12.2,668.2,681.7,674.3,99.5,255.3,202.1,,,,
12/04/82,-6.1,0.3,-2.6,12.0,61.0,32.7,3.5,8.5,,,12.6,677.1,679.7,678.8,101.3,268.3,190.2,,,,
12/05/82,-8.4,-5.1,-6.9,48.0,76.0,63.6,4.1,8.7,,,12.5,675.2,677.0,676.0,102.5,254.4,210.5,,,,
12/06/82,-8.0,-3.2,-5.3,25.0,69.0,39.0,7.4,10.4,,,12.4,675.0,676.7,676.0,158.9,226.7,197.2,,,,
12/07/82,-15.3,-6.0,-11.0,44.0,82.0,66.3,1.9,6.4,,,12.3,673.6,676.1,674.8,90.0,256.0,212.8,,,,
12/08/82,-19.1,0.3,-9.6,26.0,85.0,54.0,2.3,5.2,,,12.4,673.9,688.6,680.1,104.0,243.4,198.8,,,,
12/09/82,-4.9,1.6,-0.2,31.0,56.0,43.8,7.3,11.5,,,12.4,682.6,686.2,685.0,178.5,229.8,197.0,,,,
12/10/82,-11.1,-0.4,-4.5,55.0,100.0,85.3,1.1,4.5,,,12.3,675.9,682.2,679.0,108.4,239.0,193.4,,,,
12/11/82,-11.2,-2.2,-7.7,23.0,96.0,62.7,2.3,6.0,,,12.4,674.8,682.1,677.1,96.3,267.0,202.6,,,,
12/12/82,-4.8,1.0,-2.0,18.0,29.0,22.7,4.5,8.6,,,12.6,679.4,681.7,680.9,98.1,270.0,210.8,,,,
12/13/82,-6.9,-6.9,-6.9,59.0,59.0,59.0,1.2,1.2,,,12.2,667.3,667.3,667.3,200.0,200.0,200.0,,,,
12/14/82,-14.6,-7.2,-11.3,54.0,69.0,60.8,5.3,8.9,,,12.1,665.7,670.7,667.7,194.3,233.1,214.3,,,,
12/15/82,-14.8,-8.6,-12.2,55.0,67.0,57.8,9.6,13.7,,,11.9,671.0,677.6,673.5,193.3,215.8,204.3,,,,
12/16/82,-8.7,-1.3,-5.2,51.0,72.0,64.3,8.8,12.5,,,11.9,678.2,684.1,681.3,186.9,244.4,202.2,,,,
12/17/82,-2.3,-0.2,-1.0,28.0,46.0,36.9,8.0,11.2,,,12.1,675.7,683.9,681.0,170.3,211.8,193.3,,,,
12/18/82,-13.6,-2.9,-9.5,30.0,68.0,50.3,4.1,10.0,,,12.0,670.7,675.9,673.0,140.2,249.4,196.9,,,,
12/19/82,-13.7,-4.2,-9.1,28.0,48.0,35.0,8.6,12.1,,,12.1,675.3,679.6,677.2,191.5,226.3,206.6,,,,
12/20/82,-5.8,-0.8,-3.6,15.0,34.0,26.5,8.6,10.6,,,12.4,677.5,679.6,678.9,182.8,217.9,201.4,,,,
12/21/82,-3.5,0.3,-2.4,29.0,41.0,34.1,11.1,14.1,,,12.5,674.9,677.1,676.1,188.2,210.3,199.4,,,,
12/22/82,-5.1,-1.9,-4.0,28.0,58.0,40.3,9.2,11.8,,,12.3,671.0,675.2,672.5,172.2,210.2,195.3,,,,
12/23/82,-4.9,1.7,-2.7,30.0,63.0,43.0,4.2,11.1,,,12.3,663.1,672.4,667.2,135.0,241.7,199.3,,,,
12/24/82,-13.7,-5.2,-9.7,60.0,86.0,75.5,1.2,3.9,,,12.1,659.1,667.5,662.2,135.0,256.0,216.2,,,,
12/25/82,-18.7,-7.2,-15.0,42.0,71.0,63.8,1.0,4.9,,,12.2,667.8,679.2,672.5,106.4,248.2,187.1,,,,
12/26/82,-19.0,-1.9,-10.1,27.0,72.0,50.5,3.6,9.0,,,12.3,672.6,677.0,674.9,96.0,270.0,219.4,,,,
12/27/82,-13.9,-4.5,-9.6,25.0,57.0,40.8,2.4,7.9,,,12.4,667.8,675.1,670.9,104.0,270.0,188.5,,,,
12/28/82,-22.3,-14.5,-19.6,41.0,69.0,52.0,2.5,5.2,,,12.3,663.9,667.7,665.8,102.5,243.4,194.4,,,,
12/29/82,-20.5,-14.5,-17.5,42.0,48.0,44.8,5.5,9.2,,,12.1,666.1,668.1,667.3,99.9,238.5,208.1,,,,
12/30/82,-18.2,-14.3,-16.3,31.0,46.0,37.7,3.9,7.1,,,12.1,663.9,667.8,665.6,108.4,248.2,196.6,,,,
12/31/82,-17.5,-2.6,-12.9,33.0,57.0,48.0,2.0,5.0,,,12.4,667.5,679.8,672.2,0.8,270.0,170.0,,,,
01/01/83,-13.3,-0.1,-9.9,20.0,57.0,43.5,1.3,3.1,,,12.4,675.1,684.4,677.7,110.8,257.5,208.4,,,,
01/02/83,-8.1,-1.6,-5.9,15.0,33.0,23.0,3.6,6.4,,,12.5,680.5,684.2,681.5,112.5,258.2,218.3,,,,
01/03/83,-6.4,-3.5,-4.8,13.0,24.0,16.8,7.7,10.7,,,12.5,676.6,681.5,679.0,183.8,241.8,214.6,,,,
01/04/83,-9.3,-7.0,-8.4,29.0,63.0,49.9,9.7,14.2,,,12.3,674.0,676.7,675.2,195.9,221.2,205.0,,,,
01/05/83,-7.2,-1.9,-5.0,57.0,69.0,64.0,9.8,12.5,,,12.0,676.5,681.4,679.3,191.9,246.9,207.7,,,,
01/06/83,-3.5,-1.4,-2.5,49.0,62.0,55.8,8.5,14.0,,,11.9,678.3,682.3,679.7,176.3,243.0,207.9,,,,
01/07/83,-5.1,-2.2,-3.8,52.0,72.0,61.0,9.8,13.0,,,11.9,677.1,680.5,678.6,193.4,223.6,203.4,,,,
01/08/83,-6.9,-3.2,-5.5,48.0,69.0,61.0,7.0,9.8,,,12.0,673.3,680.5,678.5,191.9,241.7,211.1,,,,
01/09/83,-15.8,-4.1,-12.4,51.0,69.0,61.0,5.8,10.7,,,12.0,664.9,671.7,667.6,105.9,248.2,191.3,,,,
01/10/83,-16.7,-7.5,-12.9,54.0,64.0,57.3,8.4,11.3,,,11.8,667.9,676.1,670.9,197.6,257.8,219.8,,,,
01/11/83,-8.0,-1.4,-5.7,39.0,65.0,52.0,6.6,11.1,,,12.0,676.0,689.0,682.5,97.0,259.1,213.3,,,,
01/12/83,-4.7,2.3,-2.0,16.0,41.0,23.8,7.2,10.7,,,12.4,686.2,690.5,687.6,194.0,259.7,220.4,,,,
01/13/83,-1.5,1.0,-0.3,11.0,18.0,14.7,7.5,12.3,,,12.5,683.0,687.7,685.2,194.6,231.3,208.7,,,,
01/14/83,-7.6,5.1,-2.7,14.0,32.0,21.3,2.8,8.2,,,12.6,685.4,692.4,687.3,93.7,261.0,205.2,,,,
01/15/83,-8.9,0.3,-2.3,15.0,43.0,20.9,4.9,10.8,,,12.6,683.5,687.2,685.0,195.6,240.3,218.6,,,,
01/16/83,-12.2,1.7,-7.1,18.0,43.0,29.6,1.2,2.3,,,12.6,675.8,682.6,678.6,113.2,270.0,218.2,,,,
01/17/83,-4.0,2.4,-1.0,12.0,47.0,22.1,3.2,6.1,,,12.6,674.6,677.5,675.7,105.3,236.3,190.6,,,,
01/18/83,-11.4,-1.9,-6.6,47.0,69.0,59.0,1.3,4.7,,,12.5,669.5,674.2,672.1,106.5,270.0,205.5,,,,
01/19/83,-10.0,-4.1,-7.6,29.0,64.0,47.8,5.5,7.7,,,12.5,669.0,672.2,670.4,204.9,266.4,223.7,,,,
01/20/83,-12.8,0.4,-7.2,28.0,64.0,47.6,1.6,6.5,,,12.6,666.1,673.5,668.9,121.0,270.0,221.1,,,,
01/21/83,-13.4,0.0,-8.3,37.0,82.0,62.5,1.0,2.9,,,12.6,667.1,674.4,669.4,90.0,251.6,194.7,,,,
01/22/83,-8.3,-6.1,-7.5,46.0,56.0,51.3,3.3,6.8,,,12.5,670.4,673.5,671.8,90.0,253.3,202.3,,,,
01/23/83,-9.7,-5.9,-7.8,39.0,70.0,53.4,6.9,11.5,,,12.2,671.3,672.6,672.1,119.7,242.6,194.4,,,,
01/24/83,-12.8,-3.3,-9.4,32.0,67.0,53.4,5.6,13.7,,,12.4,672.5,676.1,674.4,118.4,263.7,208.5,,,,
01/25/83,-8.3,-1.8,-6.7,36.0,66.0,57.5,4.3,13.7,,,12.5,670.9,676.6,673.0,90.0,255.3,195.6,,,,
01/26/83,-9.9,-4.4,-8.2,39.0,62.0,53.1,6.0,10.5,,,12.5,673.5,677.5,675.3,192.8,263.3,220.7,,,,
01/27/83,-3.2,0.9,-1.7,25.0,53.0,38.6,9.4,13.8,,,12.6,673.4,677.4,675.2,181.6,247.2,204.0,,,,
01/28/83,-6.7,0.8,-3.8,25.0,63.0,44.1,5.4,9.0,,,12.4,666.8,672.5,669.1,115.0,226.8,190.0,,,,
01/29/83,-11.1,-2.9,-7.4,17.0,65.0,45.7,5.6,8.3,,,12.4,669.8,674.3,672.0,178.5,255.1,216.1,,,,
01/30/83,-10.6,-4.0,-7.2,39.0,67.0,51.1,4.3,7.1,,,12.6,668.5,672.7,670.3,103.5,241.9,192.1,,,,
01/31/83,-17.4,-6.8,-12.7,49.0,81.0,64.5,1.0,1.7,,,12.5,666.2,671.7,669.0,116.6,270.0,210.6,,,,
02/01/83,-17.1,-9.4,-12.7,57.0,78.0,69.0,0.7,1.6,,,12.4,664.6,670.0,667.3,153.4,266.4,226.5,,,,
02/02/83,-19.0,-11.5,-16.2,46.0,70.0,60.9,1.2,5.3,,,12.2,662.7,667.7,664.6,107.5,251.6,197.8,,,,
02/03/83,-16.8,-8.7,-14.6,31.0,55.0,45.8,3.8,7.9,,,12.4,663.8,669.9,665.4,167.5,255.5,211.1,,,,
02/04/83,-21.8,-3.0,-15.7,27.0,68.0,47.7,0.9,3.2,,,12.5,662.4,667.5,664.4,104.0,260.5,205.6,,,,
02/05/83,-12.1,-7.9,-10.2,46.0,63.0,56.8,4.2,8.4,,,12.3,664.9,668.1,666.2,106.4,241.4,202.5,,,,
02/06/83,-15.8,-10.7,-13.9,34.0,52.0,44.7,6.9,10.0,,,12.3,666.5,670.3,667.9,194.2,231.3,214.2,,,,
02/07/83,-13.7,-8.3,-11.5,44.0,73.0,55.7,7.2,11.3,,,12.2,666.5,670.0,667.8,149.0,230.2,203.5,,,,
02/08/83,-10.0,-3.8,-7.3,43.0,73.0,58.1,8.4,13.3,,,12.1,667.3,670.7,669.4,116.6,226.5,196.0,,,,
02/09/83,-6.9,-4.2,-5.8,47.0,71.0,58.6,7.6,11.6,,,12.1,670.0,673.2,671.5,122.8,213.3,194.6,,,,
02/10/83,-11.9,-7.2,-9.3,52.0,70.0,61.4,4.7,7.9,,,12.2,669.6,673.2,671.6,126.6,261.5,192.5,,,,
02/11/83,-13.6,-5.9,-10.2,37.0,68.0,56.0,3.3,7.0,,,12.5,672.4,679.6,675.2,97.1,263.7,189.3,,,,
02/12/83,-9.2,2.1,-4.0,27.0,49.0,40.3,5.3,9.2,,,12.7,678.2,684.4,680.8,105.9,267.6,213.6,,,,
02/13/83,-3.2,4.0,-1.1,23.0,38.0,31.7,4.9,8.6,,,12.6,675.2,682.3,679.6,95.4,265.6,205.6,,,,
02/14/83,-7.0,-2.3,-4.3,25.0,58.0,45.0,3.7,6.5,,,12.5,672.5,679.6,675.0,138.0,228.4,201.3,,,,
02/15/83,-9.3,-2.9,-6.9,24.0,57.0,45.5,4.2,6.9,,,12.6,676.1,679.5,677.4,108.1,236.0,206.2,,,,
02/16/83,-6.9,-2.5,-5.1,33.0,65.0,45.9,4.7,7.3,,,12.5,674.4,677.4,676.3,180.0,239.8,216.0,,,,
02/17/83,-10.7,-4.4,-8.2,34.0,76.0,54.3,5.8,12.4,,,12.7,674.3,680.0,676.4,161.6,263.4,211.5,,,,
02/18/83,-6.4,2.8,-3.1,20.0,55.0,39.3,7.6,11.9,,,12.7,674.1,678.9,677.5,166.7,249.6,201.5,,,,
02/19/83,-5.3,1.4,-3.1,19.0,59.0,38.5,4.0,7.7,,,12.4,664.8,674.3,669.0,99.2,262.6,192.5,,,,
02/20/83,-14.2,2.1,-7.7,17.0,60.0,45.8,1.3,3.1,,,12.6,675.0,685.3,678.1,90.0,270.0,172.1,,,,
02/21/83,-11.5,3.8,-4.1,28.0,59.0,38.4,2.2,5.0,,,12.7,678.7,686.1,680.9,96.3,255.1,164.5,,,,
02/22/83,-7.1,2.5,-3.8,33.0,59.0,48.5,2.8,6.1,,,12.7,678.6,684.3,680.8,103.4,266.8,166.3,,,,
02/23/83,-4.7,3.2,-2.5,29.0,48.0,40.5,4.7,7.4,,,12.7,677.1,682.2,678.8,100.1,236.3,205.3,,,,
02/24/83,-9.0,5.6,-3.1,17.0,57.0,32.7,1.3,3.5,,,12.6,673.6,681.4,676.7,108.4,261.9,183.1,,,,
02/25/83,-2.9,5.0,-0.7,16.0,48.0,35.4,4.7,7.7,,,12.8,674.7,679.1,676.1,135.0,256.4,209.8,,,,
02/26/83,-6.9,-2.0,-4.9,43.0,64.0,52.9,5.8,9.6,,,12.7,670.3,674.8,671.8,124.2,252.4,202.9,,,,
02/27/83,-7.6,-2.6,-5.6,30.0,60.0,48.9,6.5,10.9,,,12.7,671.4,676.5,673.2,175.0,208.0,192.3,,,,
02/28/83,-5.5,-3.2,-4.3,38.0,67.0,57.0,5.0,7.6,,,12.5,672.4,675.0,673.9,110.6,212.8,190.8,,,,
03/01/83,-5.1,-1.1,-3.6,45.0,70.0,60.4,5.2,9.6,,,12.3,674.2,677.8,675.7,90.0,215.0,185.7,,,,
03/02/83,-3.1,3.5,-1.2,26.0,100.0,43.8,7.8,10.9,,,12.6,674.7,677.8,676.0,120.5,254.1,176.6,,,,
03/03/83,-8.0,6.3,-2.0,21.0,49.0,35.2,1.3,3.5,,,12.8,668.8,675.0,671.6,99.5,259.7,222.6,,,,
03/04/83,-7.9,-1.1,-3.8,43.0,96.0,61.9,1.2,2.7,,,12.4,661.0,669.9,664.2,230.2,249.4,242.2,,,,
03/05/83,-4.3,-1.3,-3.3,65.0,100.0,86.2,1.3,5.5,,,12.2,663.1,667.6,664.8,90.0,255.3,221.8,,,,
03/06/83,-8.7,-4.7,-6.4,61.0,76.0,68.8,5.7,12.2,,,12.4,666.8,669.5,668.0,96.7,246.8,185.4,,,,
03/07/83,-11.3,-5.5,-9.0,53.0,68.0,60.3,7.6,12.2,,,12.5,668.9,673.3,670.6,177.0,224.2,196.6,,,,
03/08/83,-8.2,-4.0,-6.3,56.0,73.0,66.0,3.6,7.5,,,12.6,672.8,679.3,675.8,100.5,263.7,165.3,,,,
03/09/83,-7.8,-0.4,-5.6,47.0,68.0,59.3,3.7,6.9,,,12.8,679.3,684.7,680.9,97.1,248.2,161.8,,,,
03/10/83,-4.9,7.8,-0.9,18.0,67.0,48.3,2.6,4.9,,,12.8,681.2,687.5,683.0,106.3,262.4,182.8,,,,
03/11/83,-6.9,6.5,0.3,29.0,80.0,45.5,4.3,8.7,,,12.8,678.9,684.8,682.2,122.8,246.0,191.3,,,,
03/12/83,-2.2,2.5,0.0,23.0,66.0,48.4,6.7,10.0,,,12.8,677.6,682.1,679.4,133.3,214.0,171.2,,,,
03/13/83,-2.4,4.6,-0.4,28.0,53.0,42.2,7.9,11.4,,,12.8,676.4,680.5,678.3,156.0,202.9,184.3,,,,
03/14/83,-2.5,2.5,-0.6,39.0,88.0,56.9,5.4,10.9,,,12.7,671.4,677.7,673.4,90.0,245.6,169.2,,,,
03/15/83,-9.7,-2.2,-6.6,66.0,99.0,81.7,1.7,3.5,,,12.4,667.5,672.3,669.7,116.6,248.2,233.2,,,,
03/16/83,-12.2,-5.8,-9.8,58.0,81.0,72.8,1.6,3.6,,,12.2,672.5,675.4,673.8,166.0,256.0,212.8,,,,
03/17/83,-14.5,-0.3,-10.1,55.0,73.0,66.9,0.7,1.7,,,12.1,667.3,673.9,669.4,104.0,243.4,202.8,,,,
03/18/83,-13.5,-1.8,-8.6,51.0,74.0,62.5,2.3,5.1,,,12.0,662.8,666.5,663.9,155.0,238.4,203.7,,,,
03/19/83,-18.5,-4.6,-13.5,42.0,69.0,61.2,0.7,3.1,,,11.9,660.1,665.2,662.2,95.2,270.0,202.5,,,,
03/20/83,-22.6,-8.2,-15.9,45.0,68.0,60.1,1.3,8.0,,,11.9,661.7,668.2,664.6,97.1,253.3,209.1,,,,
03/21/83,-15.5,-1.2,-11.4,33.0,60.0,51.0,5.2,10.2,,,12.4,665.6,670.6,667.2,100.1,241.6,186.5,,,,
03/22/83,-17.2,-1.8,-10.2,39.0,73.0,57.8,1.5,3.9,,,12.8,663.2,670.2,666.5,90.0,256.0,220.7,,,,
03/23/83,-8.7,-1.8,-6.7,35.0,69.0,52.9,4.8,7.9,,,12.9,668.1,672.2,669.7,190.6,245.2,208.0,,,,
03/24/83,-10.8,-1.6,-8.0,30.0,81.0,64.6,3.8,10.1,,,12.8,665.6,671.1,668.4,116.6,270.0,200.8,,,,
03/25/83,-11.7,-6.9,-9.3,54.0,80.0,65.3,5.1,9.2,,,12.7,658.8,665.3,660.8,105.9,270.0,204.3,,,,
03/26/83,-14.6,-8.1,-11.3,42.0,63.0,54.6,2.5,7.3,,,12.7,662.4,670.7,666.6,106.5,270.0,179.4,,,,
03/27/83,-13.3,-4.9,-10.0,38.0,58.0,52.2,4.1,6.4,,,12.8,670.7,675.0,673.2,98.7,239.9,201.2,,,,
03/28/83,-7.9,-3.4,-6.1,45.0,69.0,58.6,7.3,11.0,,,12.7,671.2,673.9,672.5,166.0,210.5,194.4,,,,
03/29/83,-10.3,-3.5,-7.4,37.0,69.0,53.9,4.9,8.5,,,12.8,673.3,677.6,674.9,104.0,262.4,195.5,,,,
03/30/83,-7.7,-1.5,-5.3,47.0,68.0,59.8,9.4,11.1,,,12.7,677.1,678.8,678.0,187.6,213.7,201.8,,,,
03/31/83,-4.3,-2.0,-2.6,54.0,83.0,65.0,4.9,8.2,,,12.5,670.1,677.9,673.7,112.6,233.1,187.7,,,,
04/01/83,-13.0,-4.6,-8.9,39.0,75.0,56.7,2.5,8.0,,,12.7,671.4,678.0,674.6,90.0,266.1,157.0,,,,
04/02/83,-11.2,-5.5,-8.8,47.0,68.0,57.0,5.7,8.5,,,12.8,670.0,677.0,673.6,97.7,223.6,199.2,,,,
04/03/83,-12.0,-5.4,-7.3,53.0,81.0,68.1,2.6,5.0,,,12.3,661.1,669.6,664.4,116.6,258.7,207.9,,,,
04/04/83,-18.4,-13.2,-15.8,58.0,65.0,61.9,2.1,3.7,,,12.2,667.4,670.7,668.9,176.4,223.4,197.3,,,,
04/05/83,-19.1,-4.6,-15.1,43.0,65.0,59.0,1.0,2.6,,,12.1,671.1,672.4,671.8,104.0,231.3,193.4,,,,
04/06/83,-24.9,-2.7,-16.6,42.0,68.0,59.0,1.0,3.1,,,12.4,669.6,672.6,671.3,132.7,270.0,221.5,,,,
04/07/83,-15.9,-2.5,-9.2,31.0,65.0,49.7,2.5,5.1,,,13.2,670.8,672.8,671.8,159.4,256.0,204.0,,,,
04/08/83,-16.9,-3.2,-11.3,36.0,68.0,54.4,2.1,5.2,,,12.9,669.2,672.5,670.6,116.6,261.3,218.4,,,,
04/09/83,-14.0,-2.6,-8.4,43.0,66.0,55.0,3.4,9.3,,,12.9,671.1,675.0,672.8,123.7,254.7,203.9,,,,
04/10/83,-5.9,0.5,-3.5,31.0,59.0,47.7,8.2,11.0,,,12.9,675.0,676.4,675.7,178.4,209.8,196.6,,,,
04/11/83,-5.4,2.6,-2.1,26.0,64.0,37.8,3.9,8.4,,,12.8,669.3,675.9,672.5,135.0,270.0,191.9,,,,
04/12/83,-7.7,-4.7,-6.4,51.0,67.0,58.7,6.0,8.8,,,12.7,666.6,668.7,667.4,162.5,217.2,204.9,,,,
04/13/83,-14.2,-3.6,-10.0,41.0,76.0,63.5,1.1,2.1,,,12.5,667.5,672.4,669.4,94.8,251.6,194.1,,,,
04/14/83,-22.5,-2.7,-13.4,31.0,65.0,52.1,0.9,2.5,,,12.7,672.1,675.4,673.4,90.0,258.7,189.3,,,,
04/15/83,-15.4,-1.0,-10.1,26.0,66.0,45.5,2.6,4.9,,,12.8,675.3,679.6,676.9,180.0,256.0,219.8,,,,
04/16/83,-10.8,-1.5,-7.3,26.0,51.0,42.4,5.0,8.1,,,12.9,679.0,680.5,679.7,188.4,256.0,210.0,,,,
04/17/83,-7.6,2.8,-4.2,18.0,48.0,34.5,8.1,11.2,,,12.9,677.1,682.1,679.6,188.7,223.0,205.1,,,,
04/18/83,-2.6,6.8,1.6,17.0,25.0,20.8,6.3,10.9,,,12.9,675.4,681.1,678.1,102.1,241.4,186.8,,,,
04/19/83,-3.3,2.5,-1.2,26.0,72.0,54.0,5.9,8.0,,,13.0,673.5,677.5,675.2,191.6,220.7,205.5,,,,
04/20/83,-6.5,8.2,-0.7,21.0,56.0,43.4,3.0,6.5,,,12.8,675.4,678.2,676.9,153.4,266.2,204.7,,,,
04/21/83,-2.6,0.6,-1.3,61.0,100.0,83.4,3.3,14.4,,,12.5,673.8,676.9,674.9,90.8,267.9,207.0,,,,
04/22/83,-4.0,1.7,-1.7,64.0,83.0,70.5,3.2,6.6,,,12.4,675.4,682.2,677.8,135.0,261.3,215.1,,,,
04/23/83,-5.4,6.6,-0.9,35.0,94.0,67.8,1.7,3.2,,,12.8,682.8,685.7,684.6,122.2,264.3,207.4,,,,
04/24/83,-3.6,9.2,2.3,22.0,98.0,54.7,4.1,7.9,,,13.0,679.0,685.3,682.8,157.9,236.3,197.1,,,,
04/25/83,-0.4,7.4,3.5,19.0,39.0,28.8,6.8,11.5,,,13.0,672.3,678.4,674.3,157.7,202.5,182.0,,,,
04/26/83,-8.2,2.3,-2.9,24.0,65.0,35.5,7.2,12.5,,,13.0,669.7,677.6,673.2,164.8,208.9,188.4,,,,
04/27/83,-5.1,-0.8,-3.0,27.0,87.0,61.5,3.0,5.4,,,12.8,674.9,677.6,676.3,125.0,216.9,183.8,,,,
04/28/83,-4.2,-0.2,-2.6,55.0,78.0,66.4,3.6,8.1,,,12.8,676.8,679.3,677.8,105.9,236.3,200.8,,,,
04/29/83,-2.5,2.2,-1.0,45.0,91.0,63.1,4.9,8.8,,,12.9,676.4,678.6,677.2,170.5,224.2,197.2,,,,
04/30/83,-3.3,1.2,-2.0,54.0,100.0,76.3,3.4,10.1,,,12.6,671.5,677.5,674.9,116.6,230.7,193.3,,,,
05/01/83,-5.6,0.7,-3.3,47.0,73.0,60.3,6.1,10.8,,,12.6,670.8,675.7,672.6,152.5,234.8,198.8,,,,
05/02/83,-7.7,2.0,-3.7,31.0,93.0,65.8,1.4,4.6,,,12.8,675.8,679.7,677.3,118.3,257.9,198.8,,,,
05/03/83,-5.2,1.2,-2.8,44.0,77.0,59.8,3.8,6.4,,,12.9,680.0,683.8,682.0,116.6,270.0,212.2,,,,
05/04/83,-4.9,4.7,-1.3,31.0,72.0,55.3,4.8,6.9,,,13.0,680.7,683.2,681.8,182.7,258.3,206.5,,,,
05/05/83,-1.1,5.6,1.8,25.0,44.0,34.4,5.1,7.8,,,13.0,675.0,680.5,677.4,180.0,233.1,195.0,,,,
05/06/83,-4.6,2.1,-2.0,30.0,70.0,55.1,4.7,9.0,,,12.9,671.9,677.5,673.7,180.0,260.0,207.8,,,,
05/07/83,-4.9,5.7,-1.8,31.0,79.0,59.3,7.1,11.6,,,12.9,677.4,687.4,682.0,195.8,251.6,211.3,,,,
05/08/83,-5.1,8.2,2.8,24.0,83.0,36.9,5.0,10.5,,,13.0,681.8,686.6,684.0,123.7,243.4,193.3,,,,
05/09/83,3.0,10.1,5.9,16.0,34.0,26.4,4.9,9.1,,,13.1,675.9,681.3,678.6,153.4,245.6,191.8,,,,
05/10/83,-5.7,7.8,2.0,21.0,80.0,46.1,1.4,4.5,,,13.0,675.9,682.6,679.0,90.0,253.3,213.3,,,,
05/11/83,-3.2,3.5,0.2,51.0,100.0,80.3,2.3,6.3,,,12.9,675.7,681.2,677.7,135.0,270.0,217.6,,,,
05/12/83,-7.7,-0.5,-5.0,32.0,82.0,56.6,6.2,10.1,,,13.0,674.8,678.8,676.1,148.0,205.0,184.4,,,,
05/13/83,-10.4,-1.7,-4.9,34.0,86.0,62.0,2.5,7.5,,,12.9,677.2,680.3,678.9,108.4,256.0,213.7,,,,
05/14/83,-11.7,-1.5,-7.1,60.0,83.0,73.6,1.0,2.6,,,12.7,678.4,680.3,679.2,111.8,270.0,211.8,,,,
05/15/83,-7.5,0.6,-4.3,38.0,94.0,66.2,2.2,6.5,,,12.7,677.8,679.8,678.9,101.8,236.3,183.6,,,,
05/16/83,-5.1,3.4,-1.7,40.0,93.0,66.9,3.2,7.5,,,12.9,674.5,679.5,676.8,142.1,270.0,202.2,,,,
05/17/83,-6.6,-0.3,-3.6,56.0,100.0,82.1,1.4,3.7,,,12.5,670.1,680.1,674.2,90.0,263.8,215.2,,,,
05/18/83,-13.4,1.4,-4.3,48.0,78.0,63.0,3.3,7.7,,,12.9,678.6,682.0,680.1,104.0,264.6,210.2,,,,
05/19/83,-4.3,-0.3,-2.7,65.0,79.0,72.3,3.9,9.4,,,12.5,678.1,681.3,679.1,132.0,241.9,205.6,,,,
05/20/83,-6.1,5.6,-0.4,47.0,82.0,66.6,1.0,1.9,,,12.7,682.3,683.3,682.9,153.4,270.0,225.4,,,,
05/21/83,-3.0,4.7,-0.1,43.0,74.0,58.1,6.2,9.2,,,13.1,680.7,683.2,681.9,188.7,230.4,209.2,,,,